Latest Coastal Weather Observations for Coconut Island

IDQ60701

Issued at 4:52 am EST Monday 27 June 2016 (issued every 10 minutes, with the page automatically refreshed every 10 minutes)

About coastal observations | Map of coastal stations | Coastal observations for QLD | Marine services | Other Formats
Station Details ID: 027054 Name: COCONUT ISLAND Lat: -10.05 Lon: 143.07 Height: 3.5 m
Data from the previous 72 hours. | See also: Recent months at Coconut Island
Date/Time
EST
Temp
°C
Wind Pressure Rain since
9am
mm
Weather Cloud Vis
km
Sea
Height
m
Swell
Dir  Spd
kts
Gust
kts
hPa Trend Height
m
Period
s
Dir
27/04:30am 26.7 SSE 3 7 1010.4 - 0.0 - - - - - - -
27/04:00am 26.6 SSE 3 7 1010.3 - 0.0 - - - - - - -
27/03:30am 26.7 SSE 4 8 1010.1 - 0.0 - - - - - - -
27/03:00am 26.7 SSE 3 6 1010.4 - 0.0 - - - - - - -
27/02:30am 26.8 SSE 3 7 1010.5 - 0.0 - - - - - - -
27/02:00am 26.9 SSE 4 6 1010.7 - 0.0 - - - - - - -
27/01:30am 26.9 SSE 3 5 1011.2 - 0.0 - - - - - - -
27/01:00am 26.9 SSE 4 6 1011.4 - 0.0 - - - - - - -
27/12:30am 26.8 SSE 4 6 1011.3 - 0.0 - - - - - - -
27/12:00am 26.8 SSE 3 7 1011.3 - 0.0 - - - - - - -
 
Date/Time
EST
Temp
°C
Wind Pressure Rain since
9am
mm
Weather Cloud Vis
km
Sea
Height
m
Swell
Dir  Spd
kts
Gust
kts
hPa Trend Height
m
Period
s
Dir
26/11:30pm 26.7 SSE 4 6 1011.2 - 0.0 - - - - - - -
26/11:00pm 26.7 SSE 3 6 1011.3 - 0.0 - - - - - - -
26/10:30pm 26.8 SSE 3 5 1011.5 - 0.0 - - - - - - -
26/10:00pm 26.9 SSE 3 5 1011.4 - 0.0 - - - - - - -
26/09:30pm 26.7 SSE 4 7 1011.3 - 0.0 - - - - - - -
26/09:00pm 26.8 SSE 4 7 1011.2 - 0.0 - - - - - - -
26/08:30pm 26.7 SSE 3 6 1011.0 - 0.0 - - - - - - -
26/08:00pm 27.0 SSE 4 7 1010.6 - 0.0 - - - - - - -
26/07:30pm 27.1 SSE 3 6 1010.4 - 0.0 - - - - - - -
26/07:00pm 27.3 SSE 3 6 1010.1 - 0.0 - - - - - - -
26/06:30pm 27.6 SSE 3 6 1010.1 - 0.0 - - - - - - -
26/06:00pm 27.8 SSE 3 5 1009.9 - 0.0 - - - - - - -
26/05:30pm 28.2 SSE 3 6 1009.4 - 0.0 - - - - - - -
26/05:00pm 28.4 SSE 3 5 1009.1 - 0.0 - - - - - - -
26/04:30pm 28.7 SE 3 9 1008.9 - 0.0 - - - - - - -
26/04:00pm 28.8 SE 3 11 1008.9 - 0.0 - - - - - - -
26/03:30pm 29.6 SSE 3 6 1008.8 - 0.0 - - - - - - -
26/03:00pm 29.6 SSE 3 8 1008.8 - 0.0 - - - - - - -
26/02:30pm 29.9 SSE 3 6 1009.0 - 0.0 - - - - - - -
26/02:00pm 31.7 SE 3 5 1009.1 - 0.0 - - - - - - -
26/01:30pm 33.6 SE 3 5 1009.3 - 0.0 - - - - - - -
26/01:00pm 32.6 SSE 3 7 1009.7 - 0.0 - - - - - - -
26/12:30pm 31.8 SSE 3 7 1010.0 - 0.0 - - - - - - -
26/12:00pm 31.9 SE 3 8 1010.4 - 0.0 - - - - - - -
26/11:30am 33.6 SE 3 8 1010.7 - 0.0 - - - - - - -
26/11:00am 31.4 SSE 3 6 1010.8 - 0.0 - - - - - - -
26/10:30am 31.9 SSE 3 6 1011.0 - 0.0 - - - - - - -
26/10:00am 30.9 SSE 3 5 1011.3 - 0.0 - - - - - - -
26/09:30am 29.5 SSE 3 7 1011.6 - 0.0 - - - - - - -
26/09:00am 29.1 SSE 3 6 1011.7 - 0.0 - - - - - - -
26/08:30am 27.1 SSE 3 6 1011.6 - 0.0 - - - - - - -
26/08:00am 26.9 SSE 3 5 1011.6 - 0.0 - - - - - - -
26/07:30am 26.6 SSE 4 6 1011.3 - 0.0 - - - - - - -
26/07:00am 26.3 SSE 3 5 1011.5 - 0.0 - - - - - - -
26/06:30am 26.4 SSE 3 5 1011.3 - 0.0 - - - - - - -
26/06:00am 26.3 SSE 3 7 1010.9 - 0.0 - - - - - - -
26/05:30am 26.4 SSE 3 5 1010.6 - 0.0 - - - - - - -
26/05:00am 26.4 SSE 3 7 1010.4 - 0.0 - - - - - - -
26/04:30am 26.5 SSE 4 6 1010.2 - 0.0 - - - - - - -
26/04:00am 26.6 SSE 3 6 1010.5 - 0.0 - - - - - - -
26/03:30am 26.7 SSE 3 6 1010.5 - 0.0 - - - - - - -
26/03:00am 26.4 SSE 3 8 1010.4 - 0.0 - - - - - - -
26/02:30am 26.5 SE 3 6 1010.6 - 0.0 - - - - - - -
26/02:00am 26.4 SE 4 9 1010.7 - 0.0 - - - - - - -
26/01:30am 26.3 SE 3 10 1010.9 - 0.0 - - - - - - -
26/01:00am 26.4 SE 3 9 1010.9 - 0.0 - - - - - - -
26/12:30am 26.3 SE 3 8 1011.1 - 0.0 - - - - - - -
26/12:00am 26.3 SE 4 9 1011.3 - 0.0 - - - - - - -
 
Date/Time
EST
Temp
°C
Wind Pressure Rain since
9am
mm
Weather Cloud Vis
km
Sea
Height
m
Swell
Dir  Spd
kts
Gust
kts
hPa Trend Height
m
Period
s
Dir
25/11:30pm 26.4 SE 5 13 1011.5 - 0.0 - - - - - - -
25/11:00pm 26.4 SE 5 11 1011.7 - 0.0 - - - - - - -
25/10:30pm 26.4 SE 3 10 1011.7 - 0.0 - - - - - - -
25/10:00pm 26.5 SE 4 9 1011.6 - 0.0 - - - - - - -
25/09:30pm 26.8 SE 4 7 1011.4 - 0.0 - - - - - - -
25/09:00pm 26.6 SE 3 8 1011.3 - 0.0 - - - - - - -
25/08:30pm 26.8 SSE 3 9 1011.0 - 0.0 - - - - - - -
25/08:00pm 26.8 SSE 3 7 1010.4 - 0.0 - - - - - - -
25/07:30pm 26.9 SE 3 8 1010.3 - 0.0 - - - - - - -
25/07:00pm 27.2 SSE 3 7 1009.9 - 0.0 - - - - - - -
25/06:30pm 27.4 SSE 4 8 1009.9 - 0.0 - - - - - - -
25/06:00pm 27.9 SSE 3 5 1009.9 - 0.0 - - - - - - -
25/05:30pm 28.4 SSE 3 5 1009.9 - 0.0 - - - - - - -
25/05:00pm 29.3 SSE 2 6 1009.8 - 0.0 - - - - - - -
25/04:30pm 29.9 SSE 2 6 1009.7 - 0.0 - - - - - - -
25/04:00pm 30.6 SE 3 9 1009.9 - 0.0 - - - - - - -
25/03:30pm 31.9 SSE 2 5 1009.8 - 0.0 - - - - - - -
25/03:00pm 32.9 SSE 4 8 1010.1 - 0.0 - - - - - - -
25/02:30pm 31.9 SE 2 7 1010.2 - 0.0 - - - - - - -
25/02:00pm 32.1 SE 3 7 1010.6 - 0.0 - - - - - - -
25/01:30pm 32.7 SE 3 7 1010.9 - 0.0 - - - - - - -
25/01:00pm 32.9 SE 4 7 1010.9 - 0.0 - - - - - - -
25/12:30pm 32.4 SE 4 11 1011.1 - 0.0 - - - - - - -
25/12:00pm 32.0 SE 3 7 1011.4 - 0.0 - - - - - - -
25/11:30am 31.0 SE 3 9 1011.9 - 0.0 - - - - - - -
25/11:00am 29.8 SE 5 12 1012.1 - 0.0 - - - - - - -
25/10:30am 29.8 SE 4 12 1012.3 - 0.0 - - - - - - -
25/10:00am 29.2 SE 4 7 1012.1 - 0.0 - - - - - - -
25/09:30am 28.4 SSE 3 9 1012.1 - 0.0 - - - - - - -
25/09:00am 28.3 SE 3 5 1011.9 - 0.2 - - - - - - -
25/08:30am 27.5 SSE 3 7 1011.6 - 0.2 - - - - - - -
25/08:00am 26.9 SSE 3 6 1011.5 - 0.2 - - - - - - -
25/07:30am 26.6 SSE 3 7 1011.5 - 0.2 - - - - - - -
25/07:00am 26.4 SSE 4 6 1010.9 - 0.2 - - - - - - -
25/06:30am 26.3 SSE 4 8 1010.6 - 0.2 - - - - - - -
25/06:00am 26.4 SSE 3 5 1010.7 - 0.2 - - - - - - -
25/05:30am 26.4 SSE 3 7 1010.3 - 0.2 - - - - - - -
25/05:00am 26.6 SSE 3 6 1009.9 - 0.2 - - - - - - -
25/04:30am 26.9 SSE 3 7 1009.8 - 0.2 - - - - - - -
25/04:00am 26.8 SSE 3 6 1009.6 - 0.2 - - - - - - -
25/03:30am 26.7 SSE 3 6 1009.8 - 0.2 - - - - - - -
25/03:00am 26.6 SSE 3 5 1009.8 - 0.2 - - - - - - -
25/02:30am 26.4 SSE 3 5 1010.1 - 0.2 - - - - - - -
25/02:00am 26.3 SSE 2 5 1010.3 - 0.2 - - - - - - -
25/01:30am 26.2 SSE 3 5 1010.4 - 0.2 - - - - - - -
25/01:00am 26.3 SSE 3 5 1010.7 - 0.2 - - - - - - -
25/12:30am 26.3 SSE 3 5 1011.0 - 0.2 - - - - - - -
25/12:00am 26.3 SSE 3 6 1011.0 - 0.2 - - - - - - -
 
Date/Time
EST
Temp
°C
Wind Pressure Rain since
9am
mm
Weather Cloud Vis
km
Sea
Height
m
Swell
Dir  Spd
kts
Gust
kts
hPa Trend Height
m
Period
s
Dir
24/11:30pm 26.5 SSE 4 7 1011.1 - 0.2 - - - - - - -
24/11:00pm 26.5 SSE 3 5 1011.2 - 0.2 - - - - - - -
24/10:30pm 26.5 SSE 3 5 1011.1 - 0.2 - - - - - - -
24/10:00pm 26.5 SSE 3 5 1011.1 - 0.2 - - - - - - -
24/09:30pm 26.2 SSE 3 5 1011.1 - 0.2 - - - - - - -
24/09:00pm 26.5 SSE 3 6 1011.1 - 0.2 - - - - - - -
24/08:30pm 26.5 SSE 3 5 1010.9 - 0.2 - - - - - - -
24/08:00pm 26.6 SSE 3 7 1010.7 - 0.2 - - - - - - -
24/07:30pm 26.7 SSE 3 5 1010.4 - 0.2 - - - - - - -
24/07:00pm 26.8 SSE 2 4 1010.3 - 0.2 - - - - - - -
24/06:30pm 27.1 SSE 2 5 1010.1 - 0.2 - - - - - - -
24/06:00pm 28.0 SSE 2 3 1010.0 - 0.2 - - - - - - -
24/05:30pm 29.1 SE 2 6 1009.7 - 0.2 - - - - - - -
24/05:00pm 30.1 SE 3 8 1009.5 - 0.2 - - - - - - -
24/04:30pm 30.7 SE 3 8 1009.5 - 0.2 - - - - - - -
24/04:00pm 31.4 SE 2 6 1009.5 - 0.2 - - - - - - -
24/03:30pm 32.0 SSE 4 8 1009.5 - 0.2 - - - - - - -
24/03:00pm 32.7 ESE 3 10 1009.4 - 0.2 - - - - - - -
24/02:30pm 32.8 SE 3 8 1009.7 - 0.2 - - - - - - -
24/02:00pm 32.9 SSE 2 7 1010.1 - 0.2 - - - - - - -
24/01:30pm 31.9 SE 3 6 1010.5 - 0.2 - - - - - - -
24/01:00pm 31.7 SE 2 6 1010.9 - 0.2 - - - - - - -
24/12:30pm 32.5 SE 3 7 1011.3 - 0.2 - - - - - - -
24/12:00pm 32.4 SE 2 5 1011.5 - 0.2 - - - - - - -
24/11:30am 32.8 SE 3 7 1011.8 - 0.2 - - - - - - -
24/11:00am 31.6 SE 3 6 1011.8 - 0.2 - - - - - - -
24/10:30am 31.6 SE 3 7 1011.7 - 0.0 - - - - - - -
24/10:00am 31.1 SE 2 5 1011.4 - 0.0 - - - - - - -
24/09:30am 30.4 SE 4 8 1011.4 - 0.0 - - - - - - -
24/09:00am 29.4 SE 4 11 1011.3 - 0.2 - - - - - - -
24/08:30am 28.7 SE 2 7 1010.7 - 0.2 - - - - - - -
24/08:00am 27.3 SE 2 5 1010.5 - 0.2 - - - - - - -
24/07:30am 26.7 SE 3 7 1010.1 - 0.2 - - - - - - -
24/07:00am 25.9 SE 4 7 1009.9 - 0.2 - - - - - - -
24/06:30am 25.8 SSE 2 6 1009.7 - 0.2 - - - - - - -
24/06:00am 26.0 SSE 2 4 1009.5 - 0.2 - - - - - - -
24/05:30am 26.1 SSE 2 5 1009.2 - 0.2 - - - - - - -
24/05:00am 26.2 SSE 2 6 1008.8 - 0.2 - - - - - - -

Other Formats:

Comma delimited format used in spreadsheet applications
http://www.bom.gov.au/fwo/IDQ60701/IDQ60701.94182.axf

JavaScript Object Notation format (JSON) in row-major order
http://www.bom.gov.au/fwo/IDQ60701/IDQ60701.94182.json